TimeEDT,TemperatureF,Dew PointF,Humidity,Sea Level PressureIn,VisibilityMPH,Wind Direction,Wind SpeedMPH,Gust SpeedMPH,PrecipitationIn,Events,Conditions,WindDirDegrees,DateUTC
12:17 AM,37.4,32.0,81,30.09,10.0,East,15.0,-,N/A,,Overcast,80,2013-04-18 04:17:00
12:36 AM,37.4,32.0,81,30.08,10.0,East,11.5,19.6,N/A,,Overcast,90,2013-04-18 04:36:00
12:57 AM,36.5,32.2,84,30.06,10.0,East,10.4,16.1,N/A,,Overcast,80,2013-04-18 04:57:00
1:16 AM,36.0,32.9,89,30.05,5.0,East,11.5,18.4,N/A,,Overcast,80,2013-04-18 05:16:00
1:37 AM,35.6,33.8,93,30.04,4.0,East,15.0,-,N/A,,Overcast,80,2013-04-18 05:37:00
2:16 AM,35.6,34.2,94,29.99,10.0,ENE,15.0,20.7,N/A,,Overcast,70,2013-04-18 06:16:00
2:37 AM,35.6,34.0,94,29.99,10.0,ENE,13.8,20.7,N/A,,Overcast,70,2013-04-18 06:37:00
2:57 AM,35.6,33.8,93,29.97,10.0,ENE,15.0,21.9,N/A,,Overcast,70,2013-04-18 06:57:00
3:16 AM,35.6,33.4,92,29.95,10.0,ENE,13.8,18.4,N/A,,Overcast,70,2013-04-18 07:16:00
3:37 AM,35.6,33.4,92,29.93,10.0,ENE,15.0,20.7,N/A,,Overcast,70,2013-04-18 07:37:00
3:57 AM,35.8,33.8,92,29.91,10.0,ENE,15.0,18.4,N/A,,Overcast,70,2013-04-18 07:57:00
4:16 AM,35.8,34.0,93,29.89,10.0,ENE,15.0,20.7,N/A,,Overcast,70,2013-04-18 08:16:00
4:36 AM,35.8,34.3,94,29.87,10.0,ENE,13.8,20.7,N/A,,Overcast,70,2013-04-18 08:36:00
4:57 AM,36.1,34.9,95,29.84,10.0,East,13.8,21.9,N/A,,Overcast,80,2013-04-18 08:57:00
5:17 AM,36.5,35.1,95,29.84,10.0,ENE,12.7,19.6,N/A,,Overcast,70,2013-04-18 09:17:00
5:37 AM,36.7,35.6,96,29.83,7.0,East,13.8,20.7,N/A,,Overcast,80,2013-04-18 09:37:00
5:56 AM,36.7,35.8,97,29.81,4.0,East,12.7,19.6,N/A,,Overcast,80,2013-04-18 09:56:00
6:17 AM,36.7,36.0,97,29.80,3.0,East,15.0,20.7,N/A,Snow,Light Snow,80,2013-04-18 10:17:00
6:37 AM,36.7,36.0,97,29.79,4.0,East,13.8,19.6,N/A,Rain,Light Rain,80,2013-04-18 10:37:00
6:56 AM,36.7,36.1,98,29.78,5.0,East,12.7,-,N/A,Rain,Rain,80,2013-04-18 10:56:00
7:17 AM,36.9,36.5,99,29.77,5.0,East,12.7,-,N/A,Rain,Light Rain,80,2013-04-18 11:17:00
7:37 AM,37.0,36.5,98,29.75,5.0,East,13.8,21.9,N/A,Rain,Light Rain,80,2013-04-18 11:37:00
7:56 AM,36.9,36.5,99,29.74,7.0,East,13.8,-,N/A,Rain,Light Rain,80,2013-04-18 11:56:00
8:17 AM,36.9,36.5,99,29.72,10.0,East,12.7,-,N/A,,Overcast,80,2013-04-18 12:17:00
8:36 AM,37.0,36.7,99,29.70,4.0,East,15.0,-,N/A,,Overcast,80,2013-04-18 12:36:00
8:57 AM,37.4,37.0,99,29.70,4.0,East,16.1,-,N/A,,Overcast,80,2013-04-18 12:57:00
9:17 AM,37.4,36.9,98,29.69,5.0,East,12.7,18.4,N/A,,Overcast,80,2013-04-18 13:17:00
9:37 AM,37.4,37.0,99,29.70,5.0,East,8.1,16.1,N/A,,Overcast,80,2013-04-18 13:37:00
9:57 AM,37.4,37.0,99,29.70,10.0,ENE,10.4,-,N/A,,Overcast,70,2013-04-18 13:57:00
10:17 AM,37.8,37.4,99,29.68,0.8,East,10.4,-,N/A,Rain,Heavy Rain,80,2013-04-18 14:17:00
10:37 AM,37.4,37.2,99,29.68,1.8,East,9.2,-,N/A,Rain,Light Rain,80,2013-04-18 14:37:00
10:57 AM,37.6,37.4,99,29.66,1.8,East,10.4,-,N/A,Rain,Rain,80,2013-04-18 14:57:00
11:16 AM,37.8,37.4,99,29.66,2.0,East,11.5,-,N/A,Rain,Light Rain,90,2013-04-18 15:16:00
11:37 AM,37.8,37.6,99,29.64,3.0,ENE,10.4,-,N/A,Rain,Light Rain,70,2013-04-18 15:37:00
11:57 AM,37.4,36.9,98,29.62,4.0,ENE,10.4,-,N/A,Rain,Light Rain,70,2013-04-18 15:57:00
12:16 PM,36.9,36.5,99,29.62,5.0,East,10.4,-,N/A,Rain,Light Rain,80,2013-04-18 16:16:00
12:37 PM,36.5,36.5,100,29.61,5.0,East,11.5,-,N/A,Rain,Light Rain,80,2013-04-18 16:37:00
12:57 PM,36.7,36.5,99,29.59,5.0,East,9.2,17.3,N/A,Rain,Light Rain,80,2013-04-18 16:57:00
1:16 PM,36.9,36.7,99,29.57,5.0,East,8.1,-,N/A,Rain,Light Rain,80,2013-04-18 17:16:00
1:37 PM,37.4,37.0,99,29.57,10.0,ENE,6.9,-,N/A,Rain,Light Rain,70,2013-04-18 17:37:00
1:57 PM,37.9,37.6,99,29.55,10.0,ENE,9.2,-,N/A,Rain,Light Rain,60,2013-04-18 17:57:00
2:17 PM,38.1,37.8,99,29.52,5.0,East,12.7,17.3,N/A,Rain,Light Rain,80,2013-04-18 18:17:00
2:37 PM,37.9,37.6,99,29.56,5.0,East,5.8,-,N/A,,Overcast,80,2013-04-18 18:37:00
2:57 PM,37.9,37.6,99,29.57,2.5,ENE,5.8,-,N/A,Rain,Rain,70,2013-04-18 18:57:00
3:17 PM,39.2,38.8,99,29.55,1.8,East,9.2,-,N/A,Rain,Rain,90,2013-04-18 19:17:00
3:37 PM,39.2,38.8,99,29.53,4.0,East,12.7,-,N/A,,Overcast,90,2013-04-18 19:37:00
3:57 PM,39.7,39.4,99,29.54,10.0,ESE,5.8,-,N/A,,Overcast,110,2013-04-18 19:57:00
4:37 PM,39.6,39.0,98,29.57,10.0,Calm,Calm,-,N/A,,Overcast,0,2013-04-18 20:37:00
4:57 PM,40.1,39.4,97,29.56,10.0,North,5.8,-,N/A,,Overcast,10,2013-04-18 20:57:00
5:17 PM,38.7,38.3,99,29.54,2.0,ENE,4.6,-,N/A,,Overcast,60,2013-04-18 21:17:00
5:37 PM,38.8,38.3,98,29.55,2.5,North,3.5,-,N/A,,Overcast,360,2013-04-18 21:37:00
5:56 PM,38.7,38.3,99,29.55,2.5,NNE,4.6,-,N/A,,Overcast,20,2013-04-18 21:56:00
6:17 PM,38.3,37.8,98,29.57,2.5,NNE,6.9,-,N/A,,Overcast,20,2013-04-18 22:17:00
6:37 PM,38.3,37.8,98,29.55,2.0,NE,6.9,-,N/A,,Overcast,40,2013-04-18 22:37:00
6:56 PM,38.3,37.9,99,29.54,4.0,NE,9.2,-,N/A,,Overcast,50,2013-04-18 22:56:00
7:17 PM,38.3,38.1,99,29.53,4.0,NE,6.9,-,N/A,,Overcast,50,2013-04-18 23:17:00
7:37 PM,38.1,37.8,99,29.52,0.5,ENE,8.1,-,N/A,Fog,Fog,70,2013-04-18 23:37:00
7:56 PM,38.3,37.9,99,29.51,0.5,ENE,6.9,-,N/A,Fog,Fog,70,2013-04-18 23:56:00
8:17 PM,38.5,38.3,99,29.52,1.0,East,8.1,-,N/A,,Overcast,80,2013-04-19 00:17:00
8:37 PM,38.3,38.1,99,29.51,1.2,East,10.4,-,N/A,,Overcast,80,2013-04-19 00:37:00
8:56 PM,37.9,37.8,99,29.50,2.5,East,11.5,16.1,N/A,,Overcast,80,2013-04-19 00:56:00
9:17 PM,37.9,37.8,99,29.48,2.5,East,11.5,-,N/A,,Overcast,80,2013-04-19 01:17:00
9:36 PM,38.3,37.9,99,29.48,1.0,East,13.8,-,N/A,,Overcast,90,2013-04-19 01:36:00
9:57 PM,38.5,38.3,99,29.46,0.8,East,12.7,-,N/A,,Overcast,80,2013-04-19 01:57:00
10:17 PM,38.5,38.3,99,29.45,1.2,East,15.0,20.7,N/A,,Overcast,90,2013-04-19 02:17:00
10:36 PM,38.8,38.7,99,29.42,1.8,East,13.8,-,N/A,,Overcast,80,2013-04-19 02:36:00
10:57 PM,38.3,38.1,99,29.41,2.0,East,19.6,-,N/A,,Overcast,90,2013-04-19 02:57:00
11:36 PM,38.3,38.1,99,29.37,7.0,East,17.3,20.7,N/A,,Overcast,90,2013-04-19 03:36:00
11:57 PM,38.3,38.3,100,29.34,7.0,East,15.0,-,N/A,,Overcast,90,2013-04-19 03:57:00